Change the Weather History Date:

Monday, January 14, 2013

  Actual Average Record
Temperature  
Mean Temperature 48 °F -  
Max Temperature 57 °F 30 °F 60 °F (2005)
Min Temperature 37 °F 6 °F -31 °F (1957)
Degree Days  
Heating Degree Days 17    
Moisture  
Dew Point 39 °F    
Average Humidity 82    
Maximum Humidity 100    
Minimum Humidity 35    
Precipitation  
Precipitation 0.00 in - - ()
Snow  
Snow 0.00 in - - ()
Snow Depth 2.00 in    
Sea Level Pressure  
Sea Level Pressure 30.00 in    
Wind  
Wind Speed 5 mph (SW)    
Max Wind Speed 21 mph    
Max Gust Speed 28 mph    
Visibility 6 miles    
Events Fog    
Averages and records for this station are not official NWS values.
T = Trace of Precipitation, MM = Missing Value Source: NWS Daily Summary

Daily Weather History Graph

Daily Weather History Graph

Search for Another Location

Airport or City:

Trip Planner

Search our weather history database for the weather conditions in past years. The results will help you decide how hot, cold, wet, or windy it might be!

Date:

Astronomy

Jan. 14, 2013 Rise Set
Actual Time 7:14 AM EST 4:35 PM EST
Civil Twilight 6:42 AM EST 5:07 PM EST
Nautical Twilight 6:07 AM EST 5:42 PM EST
Astronomical Twilight 5:33 AM EST 6:16 PM EST
Moon 8:40 AM EST (1/14) 8:24 PM EST (1/14)
Length of Visible Light 10h 24m
Length of Day
9h 21m
Waxing Crescent, 11% of the Moon is Illuminated
Jan 14
Waxing Crescent
Jan 18
First Quarter
Jan 26
Full
Feb 3
Last Quarter
Feb 10
New

Hourly Weather History & Observations

Time (EST) Temp. Windchill Dew Point Humidity Pressure Visibility Wind Dir Wind Speed Gust Speed Precip Events Conditions
12:53 AM 46.9 °F - 44.1 °F 90% 30.00 in 5.0 mi South 8.1 mph - N/A   Overcast
1:53 AM 46.0 °F 44.8 °F 44.1 °F 93% 30.00 in 10.0 mi SSE 3.5 mph - N/A   Overcast
2:53 AM 46.0 °F 43.9 °F 44.1 °F 93% 29.99 in 10.0 mi SSE 4.6 mph - N/A   Overcast
3:38 AM 46.4 °F 43.5 °F 44.6 °F 93% 29.92 in 3.0 mi South 5.8 mph - N/A Fog Shallow Fog
3:53 AM 46.0 °F 44.8 °F 45.0 °F 96% 29.96 in 0.1 mi SSW 3.5 mph - N/A Fog Fog
4:53 AM 45.0 °F - 44.1 °F 97% 29.95 in 0.1 mi Calm Calm - N/A Fog Fog
5:25 AM 44.6 °F 40.2 °F 44.6 °F 100% 29.87 in 0.5 mi SSE 8.1 mph - N/A Fog Fog
5:42 AM 46.4 °F 41.9 °F 44.6 °F 93% 29.86 in 2.0 mi South 9.2 mph - N/A   Mostly Cloudy
5:53 AM 46.0 °F 40.6 °F 45.0 °F 96% 29.92 in 2.0 mi South 11.5 mph - N/A   Mostly Cloudy
5:57 AM 46.4 °F 41.1 °F 44.6 °F 93% 29.87 in 4.0 mi South 11.5 mph - N/A   Mostly Cloudy
6:53 AM 46.0 °F - 45.0 °F 96% 29.92 in 6.0 mi Calm Calm - N/A   Overcast
7:36 AM 42.8 °F - 42.8 °F 100% 29.91 in 6.0 mi Calm Calm - N/A   Scattered Clouds
7:45 AM 44.6 °F - 42.8 °F 93% 29.91 in 2.0 mi Calm Calm - N/A   Scattered Clouds
7:47 AM 44.6 °F - 42.8 °F 93% 29.91 in 1.8 mi Calm Calm - N/A   Scattered Clouds
7:53 AM 43.0 °F - 43.0 °F 100% 29.96 in 0.8 mi Calm Calm - N/A   Mist
8:00 AM 42.8 °F - 42.8 °F 100% 29.91 in 1.5 mi Calm Calm - N/A   Scattered Clouds
8:11 AM 42.8 °F - 42.8 °F 100% 29.92 in 6.0 mi Calm Calm - N/A   Partly Cloudy
8:23 AM 42.8 °F - 42.8 °F 100% 29.92 in 6.0 mi Calm Calm - N/A   Partly Cloudy
8:30 AM 42.8 °F 41.1 °F 42.8 °F 100% 29.93 in 6.0 mi South 3.5 mph - N/A   Partly Cloudy
8:47 AM 41.0 °F - 39.2 °F 93% 29.94 in 2.0 mi Calm Calm - N/A   Clear
8:53 AM 43.0 °F - 41.0 °F 93% 29.99 in 1.0 mi Calm Calm - N/A   Partly Cloudy
9:07 AM 44.6 °F - 42.8 °F 93% 29.95 in 1.0 mi Calm Calm - N/A   Mostly Cloudy
9:09 AM 44.6 °F - 42.8 °F 93% 29.95 in 0.5 mi Calm Calm - N/A Fog Fog
9:21 AM 44.6 °F - 44.6 °F 100% 29.96 in 1.0 mi Calm Calm - N/A   Mostly Cloudy
9:32 AM 44.6 °F - 42.8 °F 93% 29.96 in 3.0 mi Calm Calm - N/A   Mostly Cloudy
9:38 AM 44.6 °F - 42.8 °F 93% 29.97 in 6.0 mi Calm Calm - N/A   Mostly Cloudy
9:51 AM 46.4 °F 44.3 °F 44.6 °F 93% 29.97 in 6.0 mi South 4.6 mph - N/A   Mostly Cloudy
9:53 AM 46.0 °F 43.9 °F 45.0 °F 96% 30.01 in 6.0 mi South 4.6 mph - N/A   Mostly Cloudy
10:01 AM 46.4 °F 44.3 °F 44.6 °F 93% 29.96 in 7.0 mi SSE 4.6 mph - N/A   Mostly Cloudy
10:53 AM 50.0 °F - 46.0 °F 86% 30.00 in 10.0 mi South 3.5 mph - N/A   Clear
11:53 AM 53.1 °F - 46.9 °F 80% 29.99 in 10.0 mi South 4.6 mph - N/A   Clear
1:53 PM 57.2 °F - 37.4 °F 48% 29.99 in 10.0 mi NW 20.7 mph 27.6 mph N/A   Partly Cloudy
2:53 PM 55.0 °F - 30.9 °F 40% 30.08 in 10.0 mi WNW 17.3 mph 24.2 mph N/A   Clear
3:53 PM 52.0 °F - 25.0 °F 35% 30.12 in 10.0 mi NNW 6.9 mph - N/A   Clear
4:53 PM 48.2 °F - 23.0 °F 37% 30.10 in 10.0 mi WNW 9.2 mph - N/A   Clear
5:53 PM 46.0 °F 42.5 °F 24.1 °F 42% 30.16 in 10.0 mi NW 6.9 mph - N/A   Clear
6:53 PM 43.0 °F 39.5 °F 23.0 °F 45% 30.18 in 10.0 mi NNW 5.8 mph - N/A   Clear
7:53 PM 43.0 °F 37.2 °F 25.0 °F 49% 30.24 in 10.0 mi NW 10.4 mph - N/A   Clear
8:53 PM 41.0 °F 35.8 °F 25.0 °F 53% 30.25 in 10.0 mi NNW 8.1 mph - N/A   Clear
9:53 PM 39.9 °F 33.9 °F 24.1 °F 53% 30.24 in 10.0 mi NW 9.2 mph - N/A   Clear
10:53 PM 39.0 °F 35.7 °F 23.0 °F 53% 30.27 in 10.0 mi Variable 4.6 mph - N/A   Clear
11:53 PM 37.9 °F 32.7 °F 24.1 °F 57% 30.29 in 10.0 mi West 6.9 mph - N/A   Clear